Tracking 28790 objects as of 19-Apr-2024
HD Live streaming from Space Station
objects crossing your sky now

BLOCK DM-SL R/B

Track BLOCK DM-SL R/B now!


NORAD ID: 39021
Int'l Code: 2012-069B
Perigee: 1,366.1 km
Apogee: 35,550.4 km
Inclination: 1.0 °
Period: 648.9 minutes
Semi major axis: 24829 km
RCS: 18.9353 m2 (large)
Launch date: December 3, 2012
Source: Sea Launch (SEAL)
Launch site: SEA LAUNCH (SEAL)

Note: This is a ROCKET BODY
Your satellite tracking list
Your tracking list is empty




NASA's NSSDC Master Catalog

Two Line Element Set (TLE):
1 39021U 12069B   24110.11067175 -.00000121  00000-0  00000+0 0  9993
2 39021   0.9974 334.8050 6883888 279.5511  25.1270  2.21900035 92244
Source of the keplerian elements: AFSPC